Home   Weather   Arlington   Past weeks

Flag for USA Past Weather in Arlington, Texas, USA — Yesterday and Last 2 Weeks

Now
98 °F

Sunny.


Feels Like: 103 °F
Forecast: 79 / 98 °F
Wind: 10 mph from Southeast

Location: Arlington Municipal Airport

Current Time: Jul 22, 2017 at 8:05:44 pm

Latest Report: Jul 22, 2017 at 6:53 pm


Visibility: 10 mi

Pressure: 29.80 "Hg

Humidity: 38%

Dew Point: 68 °F

Location of ArlingtonLocation

Past Weather in Arlington — Graph

°F

Arlington Temperature Yesterday

Maximum temperature yesterday: 98 °F (at 3:53 pm)
Minimum temperature yesterday: 78 °F (at 6:53 am)
Average temperature yesterday: 89 °F

High & Low Weather Summary for the Past Weeks

 TemperatureHumidityPressure
High99 °F (Jul 22, 2:53 pm)100% (Jul 7, 11:53 pm)30.11 "Hg (Jul 7, 11:53 pm)
Low72 °F (Jul 10, 4:53 am)36% (Jul 20, 2:53 pm)29.80 "Hg (Jul 22, 5:53 pm)
Average85 °F67%29.98 "Hg
* Reported Jul 7 5:53 pm — Jul 22 5:53 pm, Arlington. Weather by CustomWeather, © 2017

Note: Actual official high and low records may vary slightly from our data, if they occured in-between our weather recording intervals... More about our weather records

Advertising

Arlington Weather History for the Previous 24 Hours

Scroll right to see more
 ConditionsComfort  
Time TempWeatherWind HumidityBarometerVisibility
5:53 pm
Sat, Jul 22
99 °FPassing clouds.10 mph38%29.80 "Hg10 mi
4:53 pm99 °FSunny.8 mph39%29.82 "Hg10 mi
3:53 pm99 °FSunny.N/A38%29.84 "Hg10 mi
2:53 pm99 °FSunny.9 mph39%29.86 "Hg10 mi
1:53 pm97 °FSunny.7 mph43%29.88 "Hg10 mi
12:53 pm96 °FSunny.13 mph46%29.90 "Hg10 mi
11:53 am94 °FSunny.8 mph52%29.92 "Hg10 mi
10:53 am91 °FSunny.3 mph57%29.93 "Hg10 mi
9:53 am87 °FSunny.8 mph65%29.93 "Hg10 mi
8:53 am83 °FSunny.7 mph74%29.93 "Hg10 mi
7:53 am79 °FSunny.6 mph84%29.92 "Hg10 mi
6:53 am78 °FSunny.7 mph84%29.90 "Hg10 mi
5:53 am78 °FClear.6 mph84%29.90 "Hg10 mi
4:53 am79 °FClear.7 mph82%29.89 "Hg10 mi
3:53 am81 °FClear.8 mph77%29.90 "Hg10 mi
2:53 am82 °FClear.8 mph72%29.90 "Hg10 mi
1:53 am84 °FClear.9 mph65%29.91 "Hg10 mi
12:53 am84 °FClear.7 mph67%29.91 "Hg10 mi
11:53 pm
Fri, Jul 21
86 °FClear.8 mph61%29.92 "Hg10 mi
10:53 pm88 °FClear.10 mph59%29.92 "Hg10 mi
9:53 pm88 °FClear.8 mph59%29.90 "Hg10 mi
8:53 pm90 °FClear.10 mph54%29.87 "Hg10 mi
Weather by CustomWeather, © 2017

See weather overviewHow to use our weather pages